ON4CCM-13 Weather Reports


time (UTC)temp
C
wind
direction
speed
KPH
gust
KPH
rain 1hr
cm
rain 24hr
cm
rain mn
cm
humidity
%
barometer
mb
20260510113029 19 12 4.8 17.7 0.00 0.00 0.00 20 1015.9
20260510112026 20 51 8.0 16.1 0.00 0.00 0.00 22 1015.9
20260510111022 19 82 8.0 19.3 0.00 0.00 0.00 24 1016.1
20260510110018 18 66 8.0 19.3 0.00 0.00 0.00 22 1016.2
20260510105115 18 123 8.0 17.7 0.00 0.00 0.00 23 1016.3
20260510104111 18 113 4.8 17.7 0.00 0.00 0.00 23 1016.3
20260510103128 18 69 6.4 17.7 0.00 0.00 0.00 24 1016.5
20260510102104 18 114 6.4 20.9 0.00 0.00 0.00 22 1016.5
20260510101100 18 293 6.4 14.5 0.00 0.00 0.00 25 1016.6
20260510100057 18 345 4.8 14.5 0.00 0.00 0.00 24 1016.7
20260510095053 18 82 6.4 17.7 0.00 0.00 0.00 25 1016.7
20260510094049 18 105 6.4 14.5 0.00 0.00 0.00 23 1016.9
20260510093046 19 129 4.8 17.7 0.00 0.00 0.00 25 1016.9
20260510092101 18 323 4.8 14.5 0.00 0.00 0.00 25 1017.0
20260510091037 19 147 4.8 12.9 0.00 0.00 0.00 26 1017.0
20260510090034 18 9 4.8 14.5 0.00 0.00 0.00 27 1017.0
20260510085030 18 45 4.8 14.5 0.00 0.00 0.00 29 1017.0
20260510084045 18 88 6.4 19.3 0.00 0.00 0.00 29 1017.1
20260510083023 18 43 6.4 14.5 0.00 0.00 0.00 30 1017.2
20260510082018 18 17 4.8 17.7 0.00 0.00 0.00 31 1017.2
20260510081115 18 128 6.4 17.7 0.00 0.00 0.00 33 1017.3
20260510080131 17 86 6.4 16.1 0.00 0.00 0.00 34 1017.4
20260510075108 18 120 3.2 6.4 0.00 0.00 0.00 37 1017.5
20260510074104 17 120 4.8 12.9 0.00 0.00 0.00 39 1017.7
20260510073100 17 39 4.8 17.7 0.00 0.00 0.00 40 1017.8
20260510072056 17 48 4.8 12.9 0.00 0.00 0.00 42 1017.7
20260510071053 16 78 4.8 12.9 0.00 0.00 0.00 43 1017.7
20260510070049 16 24 6.4 12.9 0.00 0.00 0.00 44 1017.8
20260510065046 16 65 4.8 12.9 0.00 0.00 0.00 48 1017.8
20260510064043 15 69 1.6 12.9 0.00 0.00 0.00 55 1017.8
20260510063038 14 23 3.2 9.7 0.00 0.00 0.00 57 1017.9
20260510062034 -17 0.0 0.0 0.00 0.00 0.00 1017.9
20260510061030 -17 0.0 0.0 0.00 0.00 0.00 1018.0
20260510060026 -17 0.0 0.0 0.00 0.00 0.00 1017.9
20260510055023 -17 0.0 0.0 0.00 0.00 0.00 1017.9
20260510054019 10 23 3.2 4.8 0.00 0.00 0.00 82 1017.9
20260510053037 -17 0.0 0.0 0.00 0.00 0.00 1017.8
20260510052133 -17 0.0 0.0 0.00 0.00 0.00 1017.9
20260510051109 -17 0.0 0.0 0.00 0.00 0.00 1017.8
20260510050105 -17 0.0 0.0 0.00 0.00 0.00 1017.9
20260510045102 -17 0.0 0.0 0.00 0.00 0.00 1017.8
20260510044058 -17 0.0 0.0 0.00 0.00 0.00 1017.9
20260510043115 -17 0.0 0.0 0.00 0.00 0.00 1017.9
20260510042051 -17 0.0 0.0 0.00 0.00 0.00 1017.7
20260510041047 -17 0.0 0.0 0.00 0.00 0.00 1017.6
20260510040043 -17 0.0 0.0 0.00 0.00 0.00 1017.7
20260510035100 -17 0.0 0.0 0.00 0.00 0.00 1017.9
20260510034037 -17 0.0 0.0 0.00 0.00 0.00 1017.9
20260510033033 -17 0.0 0.0 0.00 0.00 0.00 1017.8
20260510032029 -17 0.0 0.0 0.00 0.00 0.00 1017.9
20260510031026 -17 0.0 0.0 0.00 0.00 0.00 1017.8
20260510030022 -17 0.0 0.0 0.00 0.00 0.00 1017.9
20260510025018 -17 0.0 0.0 0.00 0.00 0.00 1017.9
20260510024113 -17 0.0 0.0 0.00 0.00 0.00 1018.0
20260510023106 -17 0.0 0.0 0.00 0.00 0.00 1018.1
20260510022103 -17 0.0 0.0 0.00 0.00 0.00 1018.0
20260510021059 7 0.0 0.0 0.00 0.00 0.00 96 1018.1
20260510020055 8 0.0 1.6 0.00 0.00 0.00 76 1018.0
20260510015051 8 0.0 1.6 0.00 0.00 0.00 72 1018.0
20260510014048 8 270 0.0 3.2 0.00 0.00 0.00 71 1018.0
20260510013044 9 0.0 0.0 0.00 0.00 0.00 71 1018.2
20260510012041 9 0.0 3.2 0.00 0.00 0.00 70 1018.3
20260510011057 9 315 1.6 3.2 0.00 0.00 0.00 69 1018.2
20260510010033 9 315 0.0 3.2 0.00 0.00 0.00 68 1018.2
20260510005030 9 0.0 1.6 0.00 0.00 0.00 68 1018.3
20260510004026 9 0.0 0.0 0.00 0.00 0.00 66 1018.3
20260510003023 10 326 0.0 3.2 0.00 0.00 0.00 66 1018.2
20260510002039 10 0.0 1.6 0.00 0.00 0.00 65 1018.3
20260510001015 10 338 0.0 3.2 0.00 0.00 0.00 64 1018.5
20260510000112 10 0.0 3.2 0.00 0.00 0.00 64 1018.5
20260509235128 10 326 0.0 3.2 0.00 0.00 0.00 63 1018.6
20260509234124 10 315 0.0 3.2 0.00 0.00 0.00 62 1018.5
20260509233100 10 315 0.0 3.2 0.00 0.00 0.00 62 1018.5
20260509232056 10 0.0 3.2 0.00 0.00 0.00 62 1018.5
20260509231053 10 315 1.6 6.4 0.00 0.00 0.00 62 1018.6
20260509230049 10 315 1.6 3.2 0.00 0.00 0.00 62 1018.7
20260509225046 10 0 0.0 3.2 0.00 0.00 0.00 60 1018.6
20260509224042 10 315 0.0 3.2 0.00 0.00 0.00 59 1018.8
20260509223039 11 315 0.0 3.2 0.00 0.00 0.00 58 1018.8
20260509222036 11 315 0.0 3.2 0.00 0.00 0.00 57 1018.8
20260509221031 11 0.0 1.6 0.00 0.00 0.00 56 1018.9
20260509220027 11 315 0.0 3.2 0.00 0.00 0.00 55 1018.7
20260509215023 11 0.0 0.0 0.00 0.00 0.00 54 1018.7
20260509214039 11 315 0.0 3.2 0.00 0.00 0.00 53 1018.6
20260509213015 12 315 0.0 3.2 0.00 0.00 0.00 53 1018.7
20260509212112 12 338 0.0 3.2 0.00 0.00 0.00 52 1018.6
20260509211108 12 326 0.0 4.8 0.00 0.00 0.00 50 1018.5
20260509210104 12 315 0.0 3.2 0.00 0.00 0.00 49 1018.6
20260509205101 12 308 0.0 3.2 0.00 0.00 0.00 48 1018.6
20260509204057 13 0.0 0.0 0.00 0.00 0.00 46 1018.7
20260509203053 13 80 1.6 6.4 0.00 0.00 0.00 44 1018.9
20260509202049 14 293 0.0 3.2 0.00 0.00 0.00 43 1018.7
20260509201106 14 349 1.6 6.4 0.00 0.00 0.00 42 1018.7
20260509200042 15 23 0.0 3.2 0.00 0.00 0.00 42 1018.4
20260509195058 15 338 0.0 4.8 0.00 0.00 0.00 41 1018.5
20260509194035 15 52 0.0 4.8 0.00 0.00 0.00 40 1018.5
20260509193051 15 315 1.6 8.0 0.00 0.00 0.00 40 1018.6
20260509192027 15 0.0 3.2 0.00 0.00 0.00 39 1018.5
20260509191023 -17 0.0 0.0 0.00 0.00 0.00 1018.5
20260509190040 -17 0.0 0.0 0.00 0.00 0.00 1018.4
20260509185016 17 315 1.6 3.2 0.00 0.00 0.00 32 1018.4
20260509184112 17 23 0.0 3.2 0.00 0.00 0.00 30 1018.3
20260509183109 17 338 1.6 3.2 0.00 0.00 0.00 29 1018.3
20260509182105 18 304 0.0 4.8 0.00 0.00 0.00 28 1018.1
20260509181106 18 133 3.2 8.0 0.00 0.00 0.00 24 1018.0
20260509180058 18 61 3.2 8.0 0.00 0.00 0.00 24 1018.0
20260509175102 19 122 1.6 6.4 0.00 0.00 0.00 24 1017.9
20260509174050 19 104 1.6 6.4 0.00 0.00 0.00 24 1017.7
20260509173107 20 318 1.6 6.4 0.00 0.00 0.00 24 1017.6
20260509172043 20 0.0 3.2 0.00 0.00 0.00 23 1017.7
20260509171059 20 306 1.6 3.2 0.00 0.00 0.00 22 1017.7
20260509170036 20 315 0.0 3.2 0.00 0.00 0.00 20 1017.7
20260509165032 20 84 1.6 6.4 0.00 0.00 0.00 19 1017.8
20260509164029 20 13 1.6 8.0 0.00 0.00 0.00 17 1017.8
20260509163025 20 108 1.6 6.4 0.00 0.00 0.00 20 1018.0
20260509162021 20 3 1.6 3.2 0.00 0.00 0.00 19 1017.8
20260509161037 20 33 1.6 3.2 0.00 0.00 0.00 21 1017.8
20260509160134 20 44 0.0 3.2 0.00 0.00 0.00 23 1017.9
20260509155110 20 135 0.0 3.2 0.00 0.00 0.00 24 1017.9
20260509154106 20 90 0.0 3.2 0.00 0.00 0.00 20 1018.0
20260509153123 20 129 3.2 6.4 0.00 0.00 0.00 19 1018.0
20260509152059 21 103 4.8 12.9 0.00 0.00 0.00 17 1018.0
20260509151055 21 120 8.0 16.1 0.00 0.00 0.00 14 1018.0
20260509150052 21 46 3.2 14.5 0.00 0.00 0.00 13 1018.0
20260509145049 22 131 3.2 11.3 0.00 0.00 0.00 13 1018.0
20260509144044 21 351 0.0 3.2 0.00 0.00 0.00 12 1018.2
20260509143041 21 145 1.6 6.4 0.00 0.00 0.00 15 1018.5
20260509142037 21 338 0.0 3.2 0.00 0.00 0.00 16 1018.5
20260509141033 21 95 3.2 6.4 0.00 0.00 0.00 15 1018.7
20260509140030 21 115 9.7 17.7 0.00 0.00 0.00 16 1018.8
20260509135026 21 85 4.8 6.4 0.00 0.00 0.00 14 1018.8
20260509134022 20 115 3.2 8.0 0.00 0.00 0.00 17 1018.9
20260509133038 20 92 3.2 6.4 0.00 0.00 0.00 15 1019.1
20260509132115 21 82 4.8 8.0 0.00 0.00 0.00 13 1019.2
20260509131111 21 24 6.4 12.9 0.00 0.00 0.00 17 1019.3
20260509130108 21 120 4.8 12.9 0.00 0.00 0.00 14 1019.5
20260509125104 21 120 3.2 12.9 0.00 0.00 0.00 15 1019.5
20260509124100 21 125 4.8 12.9 0.00 0.00 0.00 18 1019.7
20260509123056 22 96 3.2 12.9 0.00 0.00 0.00 15 1019.8
20260509121049 21 6 3.2 9.7 0.00 0.00 0.00 16 1019.9
20260509120046 21 122 4.8 9.7 0.00 0.00 0.00 16 1020.0
20260509115042 21 113 8.0 16.1 0.00 0.00 0.00 17 1020.1
20260509114058 21 79 6.4 16.1 0.00 0.00 0.00 17 1020.2